This demonstration page uses our WeatherBlox Daily Observations layout. Learn more.

Left ArrowRight Arrow

36.17497, -115.13722

Hourly Observations for March 2, 2015

Temp ( °F °C ) Dew Point ( °F °C ) Humidity (%) Winds ( mph kmh ) Pressure ( in mb ) Visibility ( mi km ) Precip ( " mm )
12:53 am 00:53 Cloudy 47 8.3 40 4.4 77 77 S 6 9 29.93 1014 10 16 0.00 0.00
1:30 am 01:30 Cloudy with Light Rain 46 8 39 4 76 76 S 6 9 29.91 1013 10 16 0.00 0.00
1:53 am 01:53 Cloudy with Light Rain 46 7.8 40 4.4 79 79 SSW 5 7 29.92 1013 10 16 0.02 0.51
2:14 am 02:14 Cloudy with Light Rain 46 8 39 4 76 76 SSW 7 11 29.88 1012 10 16 0.00 0.00
2:53 am 02:53 Cloudy with Light Rain 46 7.8 39 3.9 77 77 S 3 6 29.87 1012 10 16 0.01 0.25
3:24 am 03:24 Cloudy with Light Rain 46 8 39 4 76 76 S 5 7 29.85 1011 10 16 0.00 0.00
3:53 am 03:53 Cloudy with Light Rain 46 7.8 40 4.4 79 79 S 5 7 29.88 1012 10 16 0.00 0.03
4:53 am 04:53 Cloudy with Light Rain 45 7.2 41 5 86 86 SSE 6 9 29.86 1011 9 14 0.02 0.51
5:05 am 05:05 Cloudy with Light Rain 45 7.2 42 5.6 90 90 SW 5 7 29.83 1010 10 16 0.00 0.03
5:36 am 05:36 Cloudy with Light Rain 45 7 39 4 81 81 S 5 7 29.85 1011 5 8 0.00 0.00
5:51 am 05:51 Cloudy with Light Rain 45 7 39 4 81 81 S 6 9 29.85 1011 10 16 0.04 1.02
5:53 am 05:53 Cloudy with Light Rain 44 6.7 40 4.4 85 85 S 5 7 29.88 1012 10 16 0.04 1.02
6:36 am 06:36 Cloudy with Light Rain 44 6.7 40 4.4 85 85 SSE 6 9 29.83 1010 10 16 0.01 0.25
6:53 am 06:53 Cloudy 44 6.7 41 5 89 89 ESE 5 7 29.86 1011 10 16 0.01 0.25
7:07 am 07:07 Cloudy 45 7.2 41 5 86 86 ESE 3 6 29.83 1010 10 16 0.00 0.00
7:19 am 07:19 Cloudy 45 7.2 41 5 86 86 ESE 7 11 29.83 1010 10 16 0.00 0.00
7:33 am 07:33 Cloudy 45 7.2 41 5 86 86 E 8 13 29.83 1010 10 16 0.00 0.00
7:43 am 07:43 Cloudy 45 7.2 41 5 86 86 E 7 11 29.83 1010 10 16 0.00 0.00
7:53 am 07:53 Cloudy 45 7.2 41 5 86 86 E 5 7 29.85 1011 10 16 0.00 0.00
8:26 am 08:26 Cloudy 45 7.2 41 5 86 86 ESE 6 9 29.83 1010 10 16 0.00 0.00
8:53 am 08:53 Cloudy 46 7.8 41 5 83 83 SE 7 11 29.87 1012 10 16 0.00 0.00
9:06 am 09:06 Cloudy 46 7.8 41 5 83 83 SE 6 9 29.80 1009 10 16 0.00 0.00
9:25 am 09:25 Cloudy 47 8.3 41 5 80 80 SSE 7 11 29.80 1009 10 16 0.00 0.00
9:53 am 09:53 Mostly Cloudy 49 9.4 42 5.6 77 77 SE 9 15 29.85 1011 10 16 0.00 0.00
10:53 am 10:53 Partly Cloudy 52 11.1 37 2.8 57 57 SSW 12 19 29.83 1010 10 16 0.00 0.00
11:53 am 11:53 Mostly Cloudy 55 12.8 35 1.7 47 47 SW 15 24 29.81 1010 10 16 0.00 0.00
12:53 pm 12:53 Mostly Cloudy 55 12.8 34 1.1 45 45 SW 15 24 29.79 1009 10 16 0.00 0.00
1:53 pm 13:53 Mostly Cloudy 56 13.3 32 0 40 40 WSW 21 33 29.79 1009 10 16 0.00 0.00
2:53 pm 14:53 Mostly Cloudy 56 13.3 33 0.6 42 42 WSW 14 22 29.81 1010 10 16 0.00 0.00
3:53 pm 15:53 Cloudy 55 12.8 31 -0.6 40 40 W 8 13 29.83 1010 10 16 0.00 0.00
4:53 pm 16:53 Mostly Cloudy 53 11.7 35 1.7 51 51 NNW 10 17 29.85 1011 10 16 0.00 0.00
5:53 pm 17:53 Cloudy 52 11.1 36 2.2 55 55 NNW 10 17 29.90 1012 10 16 0.00 0.00
6:53 pm 18:53 Cloudy 48 8.9 33 0.6 56 56 NNW 21 33 29.93 1013 10 16 0.00 0.00
7:53 pm 19:53 Clear 48 8.9 33 0.6 56 56 NW 10 17 29.94 1014 10 16 0.00 0.00
8:53 pm 20:53 Clear 47 8.3 35 1.7 63 63 Calm 29.96 1015 10 16 0.00 0.00
9:53 pm 21:53 Clear 46 7.8 35 1.7 66 66 NNE 3 6 29.96 1015 10 16 0.00 0.00
10:53 pm 22:53 Clear 45 7.2 35 1.7 68 68 N 5 7 29.98 1015 10 16 0.00 0.00
11:53 pm 23:53 Clear 44 6.7 34 1.1 68 68 N 8 13 29.98 1015 10 16 0.00 0.00

Powered by AerisWeather